Date String (YYYY-MM-DD hh:mm:ss) UTC,Instrument flags,Ambient pressure (hPa),Sample flow (lpm),Bypass flow (lpm),Sample temperature (°C),Ambient temperature (°C),ASC tube jacket temperature (°C),LED temperature (°C),Box temperature (°C),Sample RH (%),Span deviation,Mass concentration (μg/m³),Mass concentration (μg/m³),Mass concentration (μg/m³)
DateTimeUTC,F1_M11,P_M11,Q1_M11,Q2_M11,T1_M11,T2_M11,T3_M11,T4_M11,T5_M11,U1_M11,ZSPAN_M11,X0_M11,X2_M11,X1_M11
2021-12-05 04:00:00,,0822.0,5.01,0.00,28.2,27.2,00.0,37.3,29.9,08.2,0000.0,0001.24,0000.67,0000.42
2021-12-05 04:01:00,,0822.0,5.00,0.00,28.2,27.2,00.0,37.2,29.9,08.4,0000.0,0001.33,0000.71,0000.42
2021-12-05 04:02:00,,0822.2,4.99,0.00,28.2,27.1,00.0,37.2,29.9,08.5,0000.0,0001.59,0000.76,0000.41
2021-12-05 04:03:00,,0822.2,4.99,0.00,28.2,27.1,00.0,37.2,29.9,08.6,0000.0,0001.58,0000.75,0000.41
2021-12-05 04:04:00,,0822.3,5.01,0.00,28.1,27.1,00.0,37.2,29.8,08.5,0000.0,0001.68,0000.75,0000.41
2021-12-05 04:05:00,,0822.2,4.99,0.00,28.1,27.1,00.0,37.2,29.8,08.5,0000.0,0001.73,0000.75,0000.40
2021-12-05 04:06:00,,0822.3,5.01,0.00,28.1,27.0,00.0,37.2,29.8,08.4,0000.0,0001.96,0000.79,0000.40
2021-12-05 04:07:00,,0822.3,4.99,0.00,28.1,27.0,00.0,37.2,29.8,08.4,0000.0,0001.97,0000.79,0000.40
2021-12-05 04:08:00,,0822.4,5.01,0.00,28.1,27.0,00.0,37.2,29.8,08.4,0000.0,0001.96,0000.79,0000.40
2021-12-05 04:09:00,,0822.4,4.99,0.00,28.1,27.0,00.0,37.2,29.8,08.4,0000.0,0001.93,0000.78,0000.41
2021-12-05 04:10:00,,0822.4,4.99,0.00,28.1,27.1,00.0,37.2,29.7,08.4,0000.0,0001.88,0000.77,0000.40
2021-12-05 04:11:00,,0822.4,5.02,0.00,28.1,27.1,00.0,37.1,29.7,08.5,0000.0,0001.73,0000.74,0000.40
2021-12-05 04:12:00,,0822.4,5.00,0.00,28.1,27.1,00.0,37.1,29.6,08.5,0000.0,0001.69,0000.70,0000.40
2021-12-05 04:13:00,,0822.4,4.98,0.00,28.0,27.0,00.0,37.1,29.6,08.5,0000.0,0001.56,0000.67,0000.40
2021-12-05 04:14:00,,0822.4,5.01,0.00,28.0,27.0,00.0,37.1,29.6,08.5,0000.0,0002.07,0000.68,0000.40
2021-12-05 04:15:00,,0822.6,4.99,0.00,28.0,27.0,00.0,37.1,29.6,08.5,0000.0,0003.10,0000.72,0000.40
2021-12-05 04:16:00,,0822.5,5.01,0.00,28.0,27.0,00.0,37.1,29.7,08.5,0000.0,0003.19,0000.75,0000.41
2021-12-05 04:17:00,,0822.5,5.00,0.00,28.1,27.1,00.0,37.1,29.7,08.3,0000.0,0003.03,0000.72,0000.40
2021-12-05 04:18:00,,0822.5,4.99,0.00,28.1,27.1,00.0,37.1,29.8,08.4,0000.0,0002.96,0000.69,0000.40
2021-12-05 04:19:00,,0822.5,5.00,0.00,28.1,27.1,00.0,37.1,29.7,08.4,0000.0,0003.08,0000.72,0000.41
2021-12-05 04:20:00,,0822.6,5.02,0.00,28.1,27.2,00.0,37.1,29.8,08.4,0000.0,0003.33,0000.74,0000.40
2021-12-05 04:21:00,,0822.6,4.99,0.00,28.1,27.1,00.0,37.1,29.7,08.5,0000.0,0003.98,0000.75,0000.40
2021-12-05 04:22:00,,0822.6,5.00,0.00,28.1,27.1,00.0,37.1,29.7,08.4,0000.0,0004.12,0000.78,0000.41
2021-12-05 04:23:00,,0822.6,5.01,0.00,28.1,27.1,00.0,37.1,29.8,08.4,0000.0,0004.18,0000.81,0000.41
2021-12-05 04:24:00,,0822.6,4.99,0.00,28.1,27.1,00.0,37.1,29.7,08.6,0000.0,0004.06,0000.78,0000.41
2021-12-05 04:25:00,,0822.6,5.01,0.00,28.1,27.1,00.0,37.1,29.7,08.6,0000.0,0003.83,0000.79,0000.42
2021-12-05 04:26:00,,0822.4,4.99,0.00,28.1,27.2,00.0,37.1,29.8,08.6,0000.0,0002.47,0000.72,0000.42
2021-12-05 04:27:00,,0822.5,5.00,0.00,28.1,27.2,00.0,37.1,29.7,08.6,0000.0,0002.26,0000.67,0000.42
2021-12-05 04:28:00,,0822.5,5.00,0.00,28.1,27.1,00.0,37.1,29.7,08.8,0000.0,0002.20,0000.67,0000.42
2021-12-05 04:29:00,,0822.4,4.99,0.00,28.1,27.1,00.0,37.1,29.7,08.8,0000.0,0002.22,0000.68,0000.42
2021-12-05 04:30:00,,0822.4,5.01,0.00,28.0,27.1,00.0,37.1,29.6,08.8,0000.0,0002.11,0000.67,0000.42
2021-12-05 04:31:00,,0822.4,4.99,0.00,28.0,27.0,00.0,37.1,29.7,08.9,0000.0,0002.06,0000.66,0000.43
2021-12-05 04:32:00,,0822.4,5.00,0.00,28.1,27.0,00.0,37.1,29.7,08.9,0000.0,0001.26,0000.66,0000.43
2021-12-05 04:33:00,,0822.3,5.00,0.00,28.1,27.1,00.0,37.1,29.8,08.9,0000.0,0001.17,0000.66,0000.44
2021-12-05 04:34:00,,0822.3,4.99,0.00,28.1,27.1,00.0,37.1,29.8,08.9,0000.0,0001.09,0000.64,0000.44
2021-12-05 04:35:00,,0822.4,4.98,0.00,28.1,27.1,00.0,37.1,29.8,09.0,0000.0,0001.05,0000.64,0000.44
2021-12-05 04:36:00,,0822.3,5.00,0.00,28.0,27.1,00.0,37.1,29.6,09.0,0000.0,0001.04,0000.64,0000.44
2021-12-05 04:37:00,,0822.2,5.00,0.00,28.0,27.1,00.0,37.1,29.6,09.0,0000.0,0001.16,0000.68,0000.46
2021-12-05 04:38:00,,0822.2,5.00,0.00,28.0,27.1,00.0,37.1,29.7,08.9,0000.0,0001.23,0000.71,0000.46
2021-12-05 04:39:00,,0822.1,5.00,0.00,28.0,27.1,00.0,37.1,29.6,08.9,0000.0,0001.25,0000.71,0000.46
2021-12-05 04:40:00,,0822.2,5.00,0.00,28.0,27.1,00.0,37.1,29.7,09.0,0000.0,0001.27,0000.72,0000.46
2021-12-05 04:41:00,,0822.2,4.99,0.00,28.0,27.1,00.0,37.1,29.6,09.0,0000.0,0001.30,0000.72,0000.45
2021-12-05 04:42:00,,0822.1,4.99,0.00,28.0,27.0,00.0,37.1,29.6,08.9,0000.0,0001.35,0000.73,0000.46
2021-12-05 04:43:00,,0822.1,5.01,0.00,28.0,27.0,00.0,37.1,29.6,09.0,0000.0,0001.47,0000.75,0000.46
2021-12-05 04:44:00,,0822.0,5.00,0.00,28.0,27.1,00.0,37.1,29.6,09.0,0000.0,0001.45,0000.73,0000.46
2021-12-05 04:45:00,,0822.1,4.98,0.00,28.0,27.1,00.0,37.1,29.6,08.9,0000.0,0001.49,0000.74,0000.46
2021-12-05 04:46:00,,0822.0,5.01,0.00,28.0,27.0,00.0,37.1,29.6,08.8,0000.0,0001.54,0000.75,0000.46
2021-12-05 04:47:00,,0822.0,5.00,0.00,28.0,27.0,00.0,37.1,29.6,08.9,0000.0,0001.58,0000.76,0000.46
2021-12-05 04:48:00,,0821.9,4.99,0.00,28.0,27.0,00.0,37.1,29.6,08.9,0000.0,0001.44,0000.73,0000.46
2021-12-05 04:49:00,,0821.8,5.01,0.00,28.0,27.0,00.0,37.1,29.6,08.8,0000.0,0001.40,0000.71,0000.46
2021-12-05 04:50:00,,0822.0,5.00,0.00,28.0,27.1,00.0,37.1,29.6,08.8,0000.0,0001.32,0000.70,0000.46
2021-12-05 04:51:00,,0821.8,5.00,0.00,28.0,27.1,00.0,37.1,29.6,08.8,0000.0,0002.93,0000.70,0000.48
2021-12-05 04:52:00,,0821.8,5.00,0.00,28.0,27.1,00.0,37.1,29.7,08.6,0000.0,0003.73,0000.72,0000.48
2021-12-05 04:53:00,,0821.8,5.01,0.00,28.0,27.1,00.0,37.0,29.7,08.2,0000.0,0003.62,0000.68,0000.48
2021-12-05 04:54:00,,0821.8,5.00,0.00,28.0,27.1,00.0,37.0,29.7,08.5,0000.0,0004.63,0000.65,0000.47
2021-12-05 04:55:00,,0821.8,5.00,0.00,28.0,27.1,00.0,37.0,29.6,08.4,0000.0,0005.53,0000.64,0000.46
2021-12-05 04:56:00,,0821.8,5.01,0.00,28.0,27.1,00.0,37.0,29.6,08.4,0000.0,0005.68,0000.66,0000.46
2021-12-05 04:57:00,,0821.7,5.00,0.00,28.0,27.1,00.0,37.0,29.6,08.3,0000.0,0005.93,0000.67,0000.46
2021-12-05 04:58:00,,0821.8,4.99,0.00,28.0,27.1,00.0,37.0,29.6,08.2,0000.0,0006.20,0000.67,0000.45
2021-12-05 04:59:00,,0821.8,5.00,0.00,28.0,27.1,00.0,37.0,29.6,08.3,0000.0,0006.22,0000.68,0000.45
